KC1SQ Weather Reports


Display with metric or nautical units.
time (UTC)temp
F
wind
direction
speed
MPH
gust
MPH
rain 1hr
in
rain 24hr
in
rain mn
in
humidity
%
barometer
mb
20260904184108 79 199 0.0 0.0 0.00 0.00 0.00 57 1008.0
20260904183829 80 201 0.0 0.0 0.00 0.00 0.00 54 1008.0
20260904183103 80 201 0.0 0.0 0.00 0.00 0.00 54 1008.0
20260904182828 80 201 0.0 0.0 0.00 0.00 0.00 54 1008.0
20260904182103 80 201 0.0 0.0 0.00 0.00 0.00 54 1008.1
20260904181604 79 201 0.0 0.0 0.00 0.00 0.00 55 1008.1
20260904181103 79 201 0.0 0.0 0.00 0.00 0.00 56 1008.0
20260904180604 80 201 0.0 0.0 0.00 0.00 0.00 55 1008.2
20260904180104 80 201 0.0 0.0 0.00 0.00 0.00 56 1008.2
20260904175604 79 202 0.0 0.0 0.00 0.00 0.00 58 1008.3
20260904175102 79 202 0.0 0.0 0.00 0.00 0.00 58 1008.3
20260904174558 78 200 0.0 0.0 0.00 0.00 0.00 60 1008.3
20260904174059 77 200 0.0 0.0 0.00 0.00 0.00 60 1008.2
20260904173559 77 200 0.0 0.0 0.00 0.00 0.00 63 1008.3
20260904173057 76 200 0.0 0.0 0.00 0.00 0.00 64 1008.3
20260904172556 77 200 0.0 0.0 0.00 0.00 0.00 62 1008.5
20260904172053 77 200 0.0 0.0 0.00 0.00 0.00 61 1008.5
20260904172032 77 200 0.0 0.0 0.00 0.00 0.00 61 1008.5
20260904171306 77 200 0.0 0.0 0.00 0.00 0.00 61 1008.5
20260904170549 78 200 0.0 0.0 0.00 0.00 0.00 60 1008.5
20260904170044 78 200 0.0 0.0 0.00 0.00 0.00 60 1008.5
20260904165810 77 200 0.0 0.0 0.00 0.00 0.00 61 1008.7
20260904165046 77 200 0.0 0.0 0.00 0.00 0.00 62 1008.6
20260904164542 76 199 0.0 2.0 0.00 0.00 0.00 60 1008.6
20260904164040 76 199 0.0 2.0 0.00 0.00 0.00 64 1008.7
20260904163803 75 198 0.0 0.0 0.00 0.00 0.00 66 1008.6
20260904163038 74 198 0.0 0.0 0.00 0.00 0.00 66 1008.9
20260904162534 74 198 0.0 1.0 0.00 0.00 0.00 66 1008.9
20260904162032 74 198 0.0 2.0 0.00 0.00 0.00 66 1009.0
20260904161754 74 198 0.0 2.0 0.00 0.00 0.00 66 1009.0
20260904161519 74 198 0.0 1.0 0.00 0.00 0.00 67 1009.1
20260904160527 74 200 0.0 2.0 0.00 0.00 0.00 68 1009.1
20260904160021 73 200 0.0 2.0 0.00 0.01 0.00 69 1009.3
20260904155735 73 200 1.0 3.0 0.00 0.01 0.00 69 1009.2
20260904155009 72 200 1.0 3.0 0.00 0.01 0.00 69 1009.1
20260904154504 72 202 0.0 2.0 0.00 0.01 0.00 70 1009.1
20260904153957 71 202 0.0 2.0 0.00 0.01 0.00 72 1009.3
20260904153451 71 202 0.0 2.0 0.00 0.01 0.00 72 1009.2
20260904152945 70 202 0.0 0.0 0.00 0.01 0.00 73 1009.3
20260904152700 70 202 0.0 0.0 0.00 0.01 0.00 74 1009.3
20260904151933 69 202 0.0 0.0 0.00 0.01 0.00 75 1009.3
20260904151647 69 202 0.0 0.0 0.00 0.01 0.00 76 1009.4
20260904151147 69 202 0.0 0.0 0.00 0.01 0.00 77 1009.5
20260904150415 69 202 0.0 0.0 0.00 0.01 0.00 77 1009.5
20260904145909 68 202 0.0 0.0 0.00 0.01 0.00 77 1009.5
20260904145403 68 202 0.0 0.0 0.00 0.01 0.00 78 1009.6
20260904145120 68 202 0.0 0.0 0.00 0.01 0.00 79 1009.6
20260904144617 67 202 0.0 0.0 0.00 0.01 0.00 78 1009.6
20260904143845 67 202 0.0 0.0 0.00 0.01 0.00 78 1009.6
20260904143338 67 202 0.0 0.0 0.00 0.01 0.00 79 1009.7
20260904143050 67 202 0.0 0.0 0.00 0.01 0.00 80 1009.7
20260904142327 67 202 0.0 0.0 0.00 0.01 0.00 79 1009.7
20260904141821 67 202 0.0 1.0 0.00 0.01 0.00 80 1009.7
20260904141315 66 202 0.0 1.0 0.00 0.01 0.00 80 1009.7
20260904140809 66 202 0.0 1.0 0.00 0.01 0.00 80 1009.8
20260904140303 66 202 0.0 1.0 0.00 0.01 0.00 80 1009.8
20260904135757 66 202 0.0 1.0 0.00 0.01 0.00 81 1009.8
20260904135251 65 202 0.0 0.0 0.00 0.01 0.00 81 1009.8
20260904134745 65 202 0.0 0.0 0.00 0.01 0.00 81 1009.8
20260904134505 65 202 0.0 0.0 0.00 0.01 0.00 81 1009.7
20260904133734 65 202 0.0 0.0 0.00 0.01 0.00 81 1009.7
20260904133228 64 202 0.0 2.0 0.00 0.01 0.00 81 1009.7
20260904132721 64 202 0.0 2.0 0.00 0.01 0.00 81 1009.8
20260904132215 64 202 0.0 3.0 0.00 0.01 0.00 81 1009.8
20260904131709 64 202 0.0 3.0 0.00 0.01 0.00 81 1009.8
20260904131204 64 202 0.0 2.0 0.00 0.01 0.00 81 1009.8
20260904130657 64 202 0.0 2.0 0.00 0.01 0.00 81 1009.7
20260904130151 64 202 0.0 2.0 0.00 0.01 0.00 81 1009.7
20260904125903 63 202 0.0 2.0 0.00 0.01 0.00 81 1009.7
20260904125139 63 202 0.0 1.0 0.00 0.01 0.00 81 1009.7
20260904124633 63 202 0.0 1.0 0.00 0.01 0.00 81 1009.7
20260904124127 63 202 0.0 2.0 0.00 0.01 0.00 81 1009.7
20260904123621 63 202 0.0 2.0 0.00 0.01 0.00 80 1009.7
20260904123115 63 202 0.0 2.0 0.00 0.01 0.00 81 1009.7
20260904122609 63 202 0.0 2.0 0.00 0.01 0.00 81 1009.8
20260904122103 63 202 0.0 1.0 0.00 0.01 0.00 81 1009.8
20260904121557 63 202 0.0 1.0 0.00 0.01 0.00 81 1009.8
20260904121309 63 202 0.0 1.0 0.00 0.02 0.00 81 1009.7
20260904120545 63 202 0.0 0.0 0.00 0.02 0.00 81 1009.8
20260904120039 63 202 0.0 2.0 0.00 0.02 0.00 81 1009.8
20260904115533 63 202 0.0 2.0 0.00 0.02 0.00 81 1009.8
20260904115027 63 202 0.0 2.0 0.00 0.02 0.00 81 1009.8
20260904114522 63 202 0.0 1.0 0.00 0.02 0.00 81 1009.8
20260904114239 63 202 0.0 1.0 0.00 0.02 0.00 81 1009.8
20260904113509 63 202 0.0 2.0 0.00 0.03 0.00 81 1009.7
20260904113004 63 202 0.0 2.0 0.00 0.03 0.00 81 1009.7
20260904112457 63 202 0.0 1.0 0.00 0.03 0.00 81 1009.7
20260904112211 63 202 0.0 0.0 0.00 0.03 0.00 80 1009.6
20260904111445 63 202 0.0 0.0 0.00 0.03 0.00 80 1009.6
20260904110939 63 202 0.0 0.0 0.00 0.03 0.00 81 1009.5
20260904110433 63 202 0.0 0.0 0.00 0.03 0.00 80 1009.5
20260904110421 63 202 0.0 0.0 0.00 0.03 0.00 80 1009.6
20260904105421 63 202 0.0 0.0 0.00 0.03 0.00 80 1009.5
20260904104915 63 202 0.0 0.0 0.00 0.03 0.00 80 1009.6
20260904104409 63 202 0.0 0.0 0.00 0.03 0.00 80 1009.6
20260904103903 63 202 0.0 0.0 0.00 0.03 0.00 80 1009.5
20260904103357 63 202 0.0 0.0 0.00 0.03 0.00 80 1009.5
20260904103110 63 202 0.0 0.0 0.00 0.03 0.00 80 1009.6
20260904102345 63 202 0.0 0.0 0.00 0.03 0.00 80 1009.3
20260904101839 63 202 0.0 0.0 0.00 0.03 0.00 80 1009.3
20260904101551 63 202 0.0 0.0 0.00 0.03 0.00 80 1009.3
20260904100827 63 202 0.0 0.0 0.00 0.03 0.00 80 1009.2
20260904100321 63 202 0.0 0.0 0.00 0.03 0.00 80 1009.4
20260904095821 63 202 0.0 0.0 0.00 0.03 0.00 80 1009.4
20260904095321 63 202 0.0 0.0 0.00 0.03 0.00 80 1009.4
20260904094821 63 202 0.0 0.0 0.00 0.03 0.00 80 1009.2
20260904094319 63 202 0.0 0.0 0.00 0.03 0.00 80 1009.3
20260904093819 63 202 0.0 0.0 0.00 0.03 0.00 80 1009.2
20260904093318 63 202 0.0 0.0 0.00 0.03 0.00 80 1009.2
20260904093258 63 202 0.0 0.0 0.00 0.03 0.00 80 1009.4
20260904092313 63 202 0.0 0.0 0.00 0.03 0.00 80 1009.3
20260904091813 63 202 0.0 2.0 0.00 0.03 0.00 80 1009.4
20260904091310 63 202 0.0 2.0 0.00 0.03 0.00 80 1009.4
20260904090811 63 202 0.0 1.0 0.00 0.03 0.00 80 1009.2
20260904090311 63 202 0.0 0.0 0.00 0.03 0.00 80 1009.2
20260904085809 63 202 0.0 0.0 0.00 0.05 0.00 80 1009.3
20260904085309 63 203 0.0 0.0 0.00 0.06 0.00 80 1009.2
20260904084805 63 203 0.0 0.0 0.00 0.08 0.00 80 1009.2
20260904084304 63 203 0.0 0.0 0.00 0.09 0.00 80 1009.4
20260904083804 63 203 0.0 0.0 0.00 0.09 0.00 80 1009.2
20260904083303 63 203 0.0 1.0 0.00 0.09 0.00 80 1009.2
20260904082804 63 204 0.0 1.0 0.00 0.09 0.00 80 1009.2
20260904082305 63 204 0.0 1.0 0.00 0.09 0.00 81 1009.2
20260904081805 63 204 0.0 0.0 0.00 0.09 0.00 81 1009.4
20260904081304 63 204 0.0 0.0 0.00 0.09 0.00 81 1009.5
20260904080805 63 203 0.0 1.0 0.00 0.09 0.00 81 1009.4
20260904080301 63 204 0.0 1.0 0.00 0.09 0.00 81 1009.3
20260904075759 63 204 0.0 1.0 0.00 0.09 0.00 81 1009.4
20260904075300 63 204 0.0 0.0 0.00 0.09 0.00 81 1009.6
20260904074759 63 204 0.0 1.0 0.00 0.09 0.00 81 1009.4
20260904074300 63 204 0.0 1.0 0.00 0.09 0.00 80 1009.4
20260904073759 63 204 0.0 0.0 0.00 0.09 0.00 80 1009.5
20260904073301 63 204 0.0 0.0 0.00 0.09 0.00 80 1009.7
20260904072759 63 204 0.0 0.0 0.00 0.09 0.00 80 1009.7
20260904072305 63 204 0.0 0.0 0.00 0.09 0.00 80 1009.7
20260904071754 63 204 0.0 0.0 0.00 0.09 0.00 80 1009.7
20260904071253 63 204 0.0 0.0 0.00 0.09 0.00 80 1009.7
20260904070749 63 204 0.0 0.0 0.00 0.09 0.00 80 1009.7
20260904070249 63 204 0.0 2.0 0.00 0.09 0.00 80 1009.7
20260904070005 63 204 0.0 2.0 0.00 0.09 0.00 80 1009.7
20260904065511 63 204 0.0 0.0 0.00 0.10 0.00 80 1009.7
20260904064745 63 204 0.0 0.0 0.00 0.10 0.00 80 1009.7
20260904064245 63 204 0.0 0.0 0.00 0.10 0.00 80 1009.8
20260904064008 63 204 0.0 0.0 0.00 0.10 0.00 80 1009.9
20260904063241 62 204 0.0 0.0 0.00 0.10 0.00 80 1009.9
20260904063006 62 204 0.0 0.0 0.00 0.10 0.00 80 1009.9
20260904062239 62 204 0.0 0.0 0.00 0.10 0.00 80 1010.1
20260904061737 62 204 0.0 0.0 0.00 0.10 0.00 80 1010.2
20260904061238 62 204 0.0 2.0 0.00 0.10 0.00 80 1010.2
20260904060738 62 204 0.0 2.0 0.00 0.10 0.00 80 1010.2
20260904060235 62 204 0.0 1.0 0.00 0.10 0.00 80 1010.2
20260904055736 62 204 0.0 0.0 0.00 0.10 0.00 80 1010.3
20260904055239 62 203 0.0 0.0 0.00 0.10 0.00 80 1010.3
20260904054959 62 204 0.0 1.0 0.00 0.10 0.00 80 1010.4
20260904054236 62 204 0.0 1.0 0.00 0.10 0.00 80 1010.5
20260904053952 62 204 0.0 0.0 0.00 0.10 0.00 80 1010.5
20260904053224 62 204 0.0 0.0 0.00 0.10 0.00 80 1010.8
20260904052718 62 204 0.0 0.0 0.00 0.10 0.00 80 1010.7
20260904052212 62 204 0.0 0.0 0.00 0.10 0.00 80 1010.9
20260904051706 62 204 0.0 0.0 0.00 0.10 0.00 80 1010.9
20260904051200 62 204 0.0 0.0 0.00 0.10 0.00 80 1011.0
20260904050655 62 204 0.0 0.0 0.00 0.10 0.00 80 1011.0
20260904050148 62 204 0.0 0.0 0.00 0.10 0.00 80 1010.9
20260904045642 62 204 0.0 0.0 0.00 0.10 0.00 80 1010.8
20260904045136 62 204 0.0 0.0 0.00 0.10 0.00 80 1010.8
20260904044630 63 204 0.0 0.0 0.00 0.10 0.00 80 1010.9
20260904044344 63 204 0.0 0.0 0.00 0.10 0.00 80 1010.8
20260904043617 63 204 0.0 0.0 0.00 0.10 0.00 80 1010.8
20260904043112 63 204 0.0 0.0 0.00 0.10 0.00 80 1010.9
20260904042828 63 204 0.0 0.0 0.00 0.10 0.00 80 1011.0
20260904042323 63 204 0.0 1.0 0.00 0.10 0.00 80 1011.0
20260904041553 63 204 0.0 1.0 0.00 0.10 0.00 80 1010.9
20260904041312 63 204 0.0 1.0 0.00 0.10 0.00 80 1011.1
20260904040542 63 204 0.0 1.0 0.00 0.10 0.00 80 1011.2
20260904040036 62 204 0.0 1.0 0.00 0.10 0.00 80 1011.2
20260904035528 63 204 0.0 1.0 0.00 0.10 0.10 80 1011.3
20260904035504 63 204 0.0 0.0 0.00 0.10 0.10 79 1011.2
20260904035013 63 204 0.0 0.0 0.00 0.10 0.10 79 1011.4
20260904034010 63 204 0.0 0.0 0.00 0.10 0.10 79 1011.4
20260904033504 63 204 0.0 1.0 0.00 0.10 0.10 79 1011.3
20260904032958 63 204 0.0 1.0 0.00 0.10 0.10 79 1011.3
20260904032452 63 204 0.0 1.0 0.00 0.10 0.10 79 1011.2
20260904032206 63 204 0.0 1.0 0.00 0.10 0.10 79 1011.2
20260904031440 63 204 0.0 1.0 0.00 0.10 0.10 79 1011.2
20260904030934 63 204 0.0 0.0 0.00 0.10 0.10 79 1011.1
20260904030428 63 204 0.0 0.0 0.00 0.10 0.10 79 1011.1
20260904025921 64 204 0.0 0.0 0.00 0.10 0.10 79 1011.3
20260904025417 64 204 0.0 0.0 0.00 0.10 0.10 80 1011.5
20260904024910 64 204 0.0 0.0 0.00 0.10 0.10 80 1011.4
20260904024404 64 204 0.0 0.0 0.00 0.10 0.10 80 1011.4
20260904023858 64 204 0.0 0.0 0.00 0.10 0.10 80 1011.4
20260904023837 64 204 0.0 0.0 0.00 0.10 0.10 80 1011.6
20260904022846 64 204 0.0 0.0 0.00 0.10 0.10 80 1011.8
20260904022340 64 204 0.0 0.0 0.00 0.10 0.10 80 1011.9
20260904021834 64 204 0.0 1.0 0.00 0.10 0.10 80 1012.0
20260904021826 64 204 0.0 2.0 0.00 0.10 0.10 80 1012.1
20260904020822 64 204 0.0 2.0 0.00 0.10 0.10 80 1012.1
20260904020316 64 204 0.0 0.0 0.00 0.10 0.10 80 1012.0
20260904015810 64 204 0.0 0.0 0.00 0.10 0.10 80 1012.2
20260904015306 64 204 0.0 0.0 0.00 0.10 0.10 79 1012.4
20260904014758 64 204 0.0 0.0 0.00 0.10 0.10 79 1012.3
20260904014252 64 204 0.0 0.0 0.00 0.10 0.10 79 1012.3
20260904013746 64 204 0.0 0.0 0.00 0.10 0.10 80 1012.4
20260904013240 64 204 0.0 0.0 0.00 0.10 0.10 79 1012.3
20260904012734 64 204 0.0 0.0 0.00 0.10 0.10 79 1012.3
20260904012711 64 204 0.0 0.0 0.00 0.10 0.10 79 1012.3
20260904011722 64 204 0.0 0.0 0.00 0.10 0.10 79 1012.2
20260904011216 64 204 0.0 0.0 0.00 0.10 0.10 79 1012.3
20260904010710 64 204 0.0 0.0 0.00 0.10 0.10 79 1012.3
20260904010204 64 204 0.0 0.0 0.00 0.10 0.10 79 1012.3
20260904005658 64 204 0.0 0.0 0.00 0.10 0.10 79 1012.3
20260904005152 64 204 0.0 0.0 0.00 0.10 0.10 79 1012.2
20260904004646 64 204 0.0 0.0 0.00 0.10 0.10 79 1012.0
20260904004140 64 204 0.0 0.0 0.00 0.10 0.10 79 1012.2
20260904003636 64 204 0.0 0.0 0.00 0.10 0.10 79 1011.9
20260904003128 64 204 0.0 1.0 0.00 0.10 0.10 79 1011.9
20260904002622 64 204 0.0 1.0 0.00 0.10 0.10 79 1012.0
20260904002116 64 204 0.0 0.0 0.00 0.10 0.10 79 1011.9
20260904001610 64 204 0.0 0.0 0.00 0.10 0.10 79 1011.9
20260904001105 64 204 0.0 0.0 0.00 0.10 0.10 79 1012.0
20260904000558 64 204 0.0 0.0 0.00 0.10 0.10 79 1012.0
20260904000053 64 204 0.0 0.0 0.00 0.10 0.10 79 1012.2
20260903235546 64 204 0.0 0.0 0.00 0.10 0.10 79 1012.0
20260903235040 64 204 0.0 0.0 0.00 0.10 0.10 79 1011.8
20260903234536 64 204 0.0 0.0 0.00 0.10 0.10 79 1012.0
20260903234028 64 204 0.0 0.0 0.00 0.10 0.10 79 1011.9
20260903233522 64 204 0.0 0.0 0.00 0.10 0.10 79 1011.9
20260903233016 64 204 0.0 0.0 0.00 0.10 0.10 79 1012.0
20260903232510 65 204 0.0 0.0 0.00 0.10 0.10 79 1012.0
20260903232004 65 204 0.0 0.0 0.00 0.10 0.10 79 1011.9
20260903231457 65 204 0.0 0.0 0.00 0.10 0.10 79 1011.9
20260903230954 65 204 0.0 0.0 0.00 0.10 0.10 79 1012.0
20260903230446 65 204 0.0 0.0 0.00 0.10 0.10 79 1012.2
20260903230209 65 204 0.0 0.0 0.00 0.10 0.10 79 1012.2
20260903225434 65 204 0.0 0.0 0.00 0.10 0.10 79 1012.1
20260903224928 65 204 0.0 0.0 0.00 0.10 0.10 79 1012.2
20260903224651 65 204 0.0 0.0 0.00 0.10 0.10 79 1012.2
20260903223916 65 204 0.0 0.0 0.00 0.10 0.10 79 1012.4
20260903223410 65 204 0.0 0.0 0.00 0.10 0.10 78 1012.2
20260903222904 65 204 0.0 0.0 0.00 0.10 0.10 78 1012.3
20260903222359 65 204 0.0 0.0 0.00 0.10 0.10 79 1012.3
20260903221852 65 204 0.0 0.0 0.00 0.10 0.10 79 1012.2
20260903221829 65 204 0.0 0.0 0.00 0.10 0.10 79 1012.1
20260903220840 65 204 0.0 0.0 0.00 0.10 0.10 79 1012.3
20260903220334 65 204 0.0 0.0 0.00 0.10 0.10 79 1012.2
20260903215828 65 204 0.0 0.0 0.00 0.10 0.10 79 1012.2
20260903215322 65 204 0.0 0.0 0.00 0.10 0.10 79 1012.1
20260903214816 65 204 0.0 0.0 0.00 0.10 0.10 79 1012.2
20260903214310 65 204 0.0 0.0 0.00 0.10 0.10 79 1012.2
20260903213804 65 204 0.0 0.0 0.00 0.10 0.10 79 1012.2
20260903213257 65 204 0.0 0.0 0.00 0.10 0.10 79 1012.1
20260903212752 65 204 0.0 0.0 0.00 0.10 0.10 79 1012.2
20260903212245 65 204 0.0 0.0 0.00 0.10 0.10 79 1012.3
20260903211740 65 204 0.0 0.0 0.00 0.10 0.10 79 1012.2
20260903211458 65 204 0.0 0.0 0.00 0.10 0.10 79 1012.3
20260903210728 65 204 0.0 0.0 0.00 0.10 0.10 79 1012.4
20260903210222 65 204 0.0 0.0 0.00 0.10 0.10 79 1012.3
20260903205716 65 204 0.0 0.0 0.00 0.10 0.10 79 1012.2
20260903205210 65 204 0.0 0.0 0.00 0.10 0.10 79 1012.2
20260903204705 65 204 0.0 0.0 0.00 0.10 0.10 79 1012.3
20260903204157 65 204 0.0 0.0 0.00 0.10 0.10 79 1012.3
20260903203651 65 204 0.0 0.0 0.00 0.10 0.10 80 1012.4
20260903203146 65 204 0.0 0.0 0.00 0.10 0.10 79 1012.4
20260903202641 64 204 0.0 0.0 0.00 0.10 0.10 79 1012.4
20260903202401 64 204 0.0 0.0 0.00 0.10 0.10 79 1012.3
20260903201643 64 204 0.0 0.0 0.00 0.10 0.10 79 1012.3
20260903201404 64 204 0.0 0.0 0.00 0.10 0.10 79 1012.4
20260903200641 64 204 0.0 0.0 0.00 0.10 0.10 79 1012.5
20260903200142 64 204 0.0 0.0 0.00 0.10 0.10 79 1012.6
20260903195640 64 204 0.0 0.0 0.00 0.10 0.10 79 1012.6
20260903195138 64 204 0.0 0.0 0.00 0.10 0.10 80 1012.6
20260903194637 64 204 0.0 0.0 0.00 0.10 0.10 80 1012.7
20260903194138 64 204 0.0 0.0 0.00 0.10 0.10 79 1012.7
20260903193638 64 204 0.0 0.0 0.00 0.10 0.10 80 1012.9
20260903193132 64 204 0.0 0.0 0.00 0.10 0.10 80 1012.9
20260903192632 64 204 0.0 0.0 0.00 0.10 0.10 80 1012.9
20260903192132 64 204 0.0 0.0 0.00 0.10 0.10 80 1012.9
20260903191633 64 204 0.0 1.0 0.00 0.10 0.10 79 1012.9
20260903191358 64 204 0.0 1.0 0.00 0.10 0.10 80 1013.0
20260903190632 64 204 0.0 0.0 0.00 0.10 0.10 80 1013.1
20260903190133 64 204 0.0 0.0 0.00 0.10 0.10 80 1013.1
20260903185633 64 204 0.0 0.0 0.00 0.10 0.10 80 1013.1
20260903185134 64 204 0.0 0.0 0.00 0.10 0.10 80 1013.2
20260903184631 64 204 0.0 0.0 0.00 0.10 0.10 80 1013.2